Location: Curupao
(10.4996°N, 66.6442°W)
Time: 12:28:39
(UTC+00:00)

Cosmos 1782 - Pass Details

Date: 23 May 2024
Orbit: 510 x 517 km, 82.5° (Epoch: 24 June)

Event Time Altitude Azimuth Distance (km) Brightness Sun altitude
Exits shadow 00:14:58 - 201° (SSW) 1,999 5.6 -21.5°
Reaches altitude 10° 00:15:40 10° 205° (SSW) 1,723 5.3 -21.6°
Maximum altitude 00:19:13 40° 275° (W) 766 4.0 -22.4°
Drops below altitude 10° 00:22:47 10° 345° (NNW) 1,724 5.9 -23.2°
Sets 00:25:00 0° 353° (N) 2,611 6.8 -23.7°
